Flag for Australia Weather past 2 weeks in Townsville, Queensland, Australia

Now
79 °F

Passing clouds.


Feels Like: 81 °F
Forecast: 68 / 77 °F
Wind: 16 mph from Northeast

Location: Townsville Amo

Current Time: Aug 31, 2015 at 3:37:17 PM

Latest Report: Aug 31, 2015 at 3:00 PM


Visibility: N/A

Pressure: 29.92 "Hg

Humidity: 65%

Dew point: 66 °F

Location of TownsvilleLocation

Historic Weather in Townsville — Graph

°F

Townsville temperature yesterday

Maximum temperature yesterday: 82 °F (at 1:30 PM)
Minimum temperature yesterday: 70 °F (at 12:30 AM)
Average temperature yesterday: 75 °F

Past Weeks' High & Low Weather Summary

 TemperatureHumidityPressure
High82 °F (Aug 23, 12:00 PM)100% (Aug 18, 6:45 AM)30.18 "Hg (Aug 18, 6:45 AM)
Low54 °F (Aug 19, 6:00 AM)34% (Aug 20, 12:00 PM)29.92 "Hg (Aug 30, 3:00 PM)
Average72 °F74%30.07 "Hg
* Reported Aug 16 2:00 PM — Aug 31 2:30 PM, Townsville, Weather by CustomWeather, © 2015

Note: Actual official high and low records may vary slightly from our data, if they occured in-between our weather recording intervals... More about our weather records

Advertising

Townsville weather history for previous 24 hours

 ConditionsComfort  
Time TempWeatherWind HumidityBarometerVisibility
2:30 PM
Mon, Aug 31
81 °FPassing clouds.15 mph62%29.92 "HgN/A
2:00 PM81 °FPassing clouds.14 mph62%29.92 "HgN/A
1:30 PM82 °FPassing clouds.14 mph55%29.95 "HgN/A
1:00 PM81 °FPassing clouds.14 mph58%29.95 "HgN/A
12:30 PM81 °FPassing clouds.13 mph62%29.98 "HgN/A
12:00 PM81 °FPassing clouds.12 mph62%29.98 "HgN/A
11:30 AM81 °FPassing clouds.10 mph62%30.01 "HgN/A
11:00 AM81 °FScattered clouds.10 mph58%30.01 "HgN/A
10:30 AM79 °FScattered clouds.12 mph65%30.01 "HgN/A
10:00 AM81 °FScattered clouds.7 mph62%30.04 "HgN/A
9:00 AM77 °FScattered clouds.5 mph69%30.04 "HgN/A
8:30 AM75 °FPassing clouds.2 mph78%30.01 "HgN/A
7:30 AM72 °FPassing clouds.No wind83%30.01 "HgN/A
7:00 AM66 °FPassing clouds.No wind94%30.01 "HgN/A
6:00 AM68 °FFog.No wind94%29.98 "HgN/A
5:00 AM68 °FClear.No wind88%29.98 "HgN/A
4:30 AM66 °FPassing clouds.3 mph94%29.95 "HgN/A
4:00 AM70 °FClear.3 mph88%29.98 "HgN/A
3:30 AM70 °FPassing clouds.No wind88%29.98 "HgN/A
3:00 AM70 °FClear.1 mph94%29.98 "HgN/A
2:30 AM72 °FPartly cloudy.6 mph88%29.98 "HgN/A
2:00 AM72 °FPassing clouds.No wind83%29.98 "HgN/A
1:30 AM73 °FPassing clouds.1 mph83%29.98 "HgN/A
1:00 AM72 °FMostly cloudy.No wind83%30.01 "HgN/A
12:30 AM72 °FOvercast.3 mph83%29.98 "HgN/A
12:00 AM72 °FMostly cloudy.3 mph88%30.01 "HgN/A
11:30 PM
Sun, Aug 30
72 °FOvercast.No wind83%30.01 "HgN/A
11:00 PM72 °FPassing clouds.1 mph88%30.01 "HgN/A
10:30 PM73 °FOvercast.No wind78%30.01 "HgN/A
10:00 PM73 °FOvercast.1 mph78%30.01 "HgN/A
9:30 PM72 °FMostly cloudy.6 mph83%30.01 "HgN/A
9:00 PM73 °FPassing clouds.No wind78%29.98 "HgN/A
8:30 PM72 °FMostly cloudy.1 mph83%29.98 "HgN/A
8:00 PM72 °FPassing clouds.No wind83%29.98 "HgN/A
7:00 PM75 °FPassing clouds.6 mph69%29.95 "HgN/A
6:30 PM75 °FPassing clouds.7 mph65%29.92 "HgN/A
6:00 PM77 °FOvercast.6 mph61%29.92 "HgN/A
5:30 PM77 °FScattered clouds.7 mph65%29.92 "HgN/A
5:00 PM77 °FScattered clouds.8 mph61%29.92 "HgN/A
4:30 PM79 °FPassing clouds.12 mph58%29.92 "HgN/A
4:00 PM81 °FPassing clouds.10 mph54%29.92 "HgN/A
3:30 PM81 °FPassing clouds.10 mph54%29.92 "HgN/A
3:00 PM82 °FScattered clouds.12 mph48%29.92 "HgN/A
Weather by CustomWeather, © 2015

See weather overviewHow to use our weather pages